Flag for Turks and Caicos Islands Weather past 2 weeks in Cockburn Town, Turks and Caicos Islands

Now
81 °F

Passing clouds.


Feels Like: 85 °F
Forecast: 81 / 86 °F
Wind: No wind

Location: Puerto Plata International

Current Time: Jul 28, 2015 at 5:17:02 AM

Latest Report: Jul 28, 2015 at 2:00 AM


Visibility: N/A

Pressure: 30.04 "Hg

Humidity: 79%

Dew point: 73 °F

Location of Cockburn TownLocation

Historic Weather in Cockburn Town — Graph

°F

Cockburn Town temperature yesterday

Maximum temperature yesterday: 97 °F (at 2:00 PM)
Minimum temperature yesterday: 75 °F (at 12:00 PM)
Average temperature yesterday: 86 °F

Past Weeks' High & Low Weather Summary

 TemperatureHumidityPressure
High97 °F (Jul 27, 2:00 PM)100% (Jul 25, 5:00 AM)30.09 "Hg (Jul 25, 5:00 AM)
Low73 °F (Jul 26, 7:00 AM)42% (Jul 27, 2:00 PM)29.92 "Hg (Jul 21, 4:00 PM)
Average85 °F72%30.01 "Hg
* Reported Jul 13 2:00 AM — Jul 28 2:00 AM, Cockburn Town, Weather by CustomWeather, © 2015

Note: Actual official high and low records may vary slightly from our data, if they occured in-between our weather recording intervals... More about our weather records

Advertising

Cockburn Town weather history for previous 24 hours

 ConditionsComfort  
Time TempWeatherWind HumidityBarometerVisibility
2:00 AM
Tue, Jul 28
81 °FPassing clouds.No wind79%30.04 "HgN/A
11:00 PM
Mon, Jul 27
81 °FPassing clouds.No wind84%30.07 "HgN/A
8:00 PM82 °FPassing clouds.No wind74%30.01 "HgN/A
7:00 PM86 °FPassing clouds.17 mph66%30.01 "HgN/A
6:00 PM88 °FPassing clouds.21 mph62%29.98 "HgN/A
5:00 PM91 °FPassing clouds.21 mph56%29.98 "HgN/A
4:00 PM91 °FPassing clouds.23 mph56%29.98 "HgN/A
3:00 PM93 °FPassing clouds.23 mph56%29.98 "HgN/A
2:00 PM97 °FPassing clouds.23 mph42%30.01 "HgN/A
1:00 PM95 °FPassing clouds.14 mph44%30.01 "HgN/A
12:00 PM75 °FPassing clouds.23 mph83%30.04 "HgN/A
11:00 AM91 °FPassing clouds.17 mph49%30.04 "HgN/A
10:00 AM88 °FPassing clouds.17 mph70%30.04 "HgN/A
9:00 AM86 °FPassing clouds.12 mph59%30.04 "HgN/A
8:00 AM82 °FPassing clouds.6 mph70%30.04 "HgN/A
7:00 AM79 °FPassing clouds.5 mph79%30.04 "HgN/A
5:00 AM77 °FPassing clouds.7 mph94%30.01 "HgN/A
Weather by CustomWeather, © 2015

See weather overviewHow to use our weather pages